Regional Weather Roundup
Issued by NWS Newport/Morehead, NC

Home | Current Version | Previous Version | Text Only | Print | Product List | Glossary On
Versions: 1 2 3 4 5 6 7 8 9 10 11 12 13 14 15 16 17 18 19 20 21 22 23 24 25 26 27 28 29 30 31 32 33 34 35 36 37 38 39 40 41 42 43 44 45 46 47 48 49 50
000
ASUS42 KMHX 060112
RWRMHX
WEATHER ROUNDUP FOR EASTERN NORTH CAROLINA
NATIONAL WEATHER SERVICE NEWPORT/MOREHEAD CITY NC
800 PM EST THU MAR 05 2015

NOTE: "FAIR" INDICATES FEW OR NO CLOUDS BELOW 12,000 FEET
WITH NO SIGNIFICANT WEATHER AND/OR OBSTRUCTIONS TO VISIBILITY

NCZ015>017-031-032-045>047-102-103-060200-
NORTH COAST

CITY           SKY/WX    TMP DP  RH WIND       PRES   REMARKS
EDENTON        CLOUDY    34  32  93 N9G23     30.20S FOG
ELIZABETH CITY CLOUDY    35  32  88 N21G26    30.19R
KITTY HAWK     RAIN      35  35 100 N15G26    30.16R
MANTEO         DRIZZLE   35  34  96 N20G35    30.17R

$$

NCZ045>047-081-094-103-104-060200-
CENTRAL COAST

CITY           SKY/WX    TMP DP  RH WIND       PRES   REMARKS
FRISCO         LGT RAIN  41  41 100 NE13G24   30.07F
SWANQUARTER      N/A     37 N/A N/A N13G22    30.12R

$$

NCZ095-097-098-100-101-060200-
SOUTHERN COAST

CITY           SKY/WX    TMP DP  RH WIND       PRES   REMARKS
BEAUFORT       HVY RAIN  39  38  96 N16       30.15R FOG
CEDAR ISLAND     N/A     41 N/A N/A N16G24    30.15R
JACKSONVILLE   LGT RAIN  40  38  93 N13       30.15R FOG
PINEY ISLAND     N/A    N/A N/A N/A MISG      30.12R
WILMINGTON     HVY RAIN  41  39  93 N10       30.14R FOG


$$

NCZ011>013-027>030-043-044-078>080-089-090>093-098-060200-
COASTAL PLAIN

CITY           SKY/WX    TMP DP  RH WIND       PRES   REMARKS
AHOSKIE        LGT RAIN  32  31  96 N13       30.24R
CLINTON        RAIN      39  38  98 N9G20     30.20R
ELIZABETHTOWN  RAIN      40  40  98 N6        30.15R
GOLDSBORO      LGT RAIN  37  37  99 N15G21    30.19R
GREENVILLE     CLOUDY    36  34  93 N18G25    30.23R
HAVELOCK       LGT RAIN  40  38  93 N14       30.15R
KENANSVILLE    RAIN      38  37  97 N10       30.18R
KINSTON        RAIN      37  36  93 N14       30.20R
NEW BERN       RAIN      39  37  92 N13G22    30.19R FOG
RICHLANDS      CLOUDY    39  36  87 N12G17    30.17R
ROCKY MOUNT    LGT RAIN  34  32  92 N15G24    30.25R
WASHINGTON     CLOUDY    36  34  93 N16G22    30.21R
WHITEVILLE     RAIN      41  39  93 N6        30.16R

$$

AMZ130-135-150-152-154-156-158-170-250-252-270-ANZ085-086-088-633-658-670-060200-
MARINE OBSERVATIONS

STATION/POSITION TIME  TEMP    WIND        PRES    WAVE   SWELL
                       AIR SEA DIR/SP/G            HT/PER HT/PER
                 (UTC) (F)     (DEG/KT/KT) (MB)    (FT/S) (FT/S)
CHESAPEAKE LIGHT 0000   33      20/ 26/ 29 1021.5
64 E VA BEACH    0050   43 53  360/ 29/ 35 1018.5    9/ 8   5/ 8
DUCK             0000   35 36  360/ 25/ 27 1019.2
2 E DUCK         0011      35                N/A     7/ 7   2/11
10 NE DUCK       0022      39                N/A     9/ 8   2/11
OREGON INLET     0000   38 47   50/ 15/ 22 1017.4
HATTERAS CG      0000      51   20/ 27/ 31 1018.8
CAPE LOOKOUT     0100           50/ 22/ 25 1018.8
BEAUFORT LAB     0000   38 49   30/ 12/ 20 1017.6
27 SE WRIGHTSVLE NOT AVBL
5 SE WRIGHTSVLE  NOT AVBL
225 S CAPE HAT   0050   74 73  230/ 23/ 27 1019.1    7/ 7   3/10
41 SE CHARLESTON 0050   69 69  260/ 23/ 29 1016.0    5/ 6   3/11

$$



USA.gov is the U.S. government's official web portal to all federal, state and local government web resources and services.